Theta_e
329 324 312 309 299 294 291 297 299 303 303 306 317 322 320 319 318 314 336 349 354 357 361 361 364 364 363 361 361 360 359 360 360 360 360 360 360 360 360 360 362 362 359 358 357 356 355 353 352
328 322 311 301 294 290 294 300 301 303 305 310 310 323 324 319 331 336 341 351 355 358 360 360 363 364 362 361 360 359 359 359 359 360 361 361 360 360 360 361 362 361 359 358 357 356 353 352 352
322 322 305 296 290 292 294 300 304 306 307 307 309 322 329 330 342 337 346 351 356 357 359 360 364 363 362 361 360 359 358 358 359 360 361 360 360 360 360 362 362 360 359 358 357 355 353 351 351
314 312 305 293 290 294 298 301 302 303 307 308 308 307 324 339 342 346 351 353 355 357 358 362 363 362 362 361 360 359 358 359 360 361 360 360 360 360 360 361 361 361 359 358 356 353 352 351 350
310 302 295 290 290 294 298 300 300 301 303 304 305 307 321 343 351 352 350 352 353 356 357 360 362 362 362 361 360 359 358 360 360 360 360 360 360 360 360 361 361 361 359 356 353 351 351 350 349
302 298 290 288 291 295 298 299 299 298 301 304 303 304 326 346 348 350 351 349 353 354 358 358 361 361 361 360 360 358 357 358 360 360 359 359 359 360 360 360 360 359 355 353 352 351 350 350 349
298 294 290 289 291 296 298 300 299 299 299 301 304 301 313 322 348 350 347 347 351 356 356 357 358 358 361 360 359 358 357 357 358 358 357 359 359 359 359 358 358 356 355 354 352 351 349 349 348
299 295 290 291 292 294 300 301 300 299 300 306 308 300 301 314 349 348 346 349 347 353 354 355 356 356 355 357 359 358 357 356 357 358 358 358 359 358 358 355 356 355 354 352 351 350 348 348 348
297 289 286 290 292 294 298 296 300 303 301 303 306 305 308 337 350 346 344 347 349 351 352 353 353 353 353 353 356 357 358 357 357 358 357 355 352 352 354 354 356 355 353 351 350 349 348 347 346
293 286 288 295 295 295 296 294 298 299 299 299 303 306 309 312 332 343 343 342 345 347 350 351 351 351 351 352 353 351 352 353 352 353 353 350 350 348 351 353 355 354 352 350 350 349 347 346 337
290 288 293 296 297 297 295 297 299 297 294 298 300 303 305 307 309 318 334 345 345 347 348 350 350 350 350 350 350 351 349 351 350 351 351 350 349 349 347 347 349 346 350 342 345 342 340 337 335
289 295 294 295 297 295 294 297 296 296 296 301 302 303 304 304 304 307 310 329 347 348 348 348 350 349 349 350 349 349 346 347 347 347 348 346 346 344 343 345 343 341 341 336 336 335 335 335 336
290 292 295 295 294 293 296 295 296 296 300 302 303 303 302 302 303 307 308 313 340 347 348 347 349 348 350 348 348 348 345 346 346 347 346 345 343 343 342 342 341 339 337 334 332 333 331 332 333
293 293 294 293 293 292 293 294 293 297 300 301 300 300 301 301 302 303 307 309 318 346 346 347 348 349 349 347 347 347 346 346 346 346 344 342 341 341 340 339 339 337 335 334 333 333 332 332 335
294 290 292 292 291 292 293 291 292 297 298 298 299 301 300 301 302 303 303 309 322 341 346 344 345 346 346 344 346 347 347 345 344 344 343 341 339 340 340 339 337 337 335 334 332 333 335 334 339
290 287 282 289 292 294 292 286 294 297 295 296 298 300 301 301 302 302 304 305 309 321 339 344 346 345 345 343 344 343 344 342 341 342 340 340 340 339 339 339 338 337 335 334 333 332 334 337 337
286 281 283 287 291 292 289 289 294 297 296 295 296 298 299 300 301 301 303 303 306 312 320 340 343 341 343 340 338 336 339 339 339 340 338 338 340 340 339 339 339 336 334 335 334 338 338 336 333
283 282 285 286 292 293 290 289 294 295 297 297 296 296 297 299 300 301 303 304 304 309 323 340 341 339 340 338 338 336 335 335 337 338 337 335 338 342 339 337 337 336 338 339 340 337 335 333 331
288 287 286 290 293 289 290 289 292 295 296 296 295 296 299 300 302 301 303 304 305 309 331 337 338 337 337 337 336 335 333 333 334 336 338 332 336 340 341 338 335 339 341 340 340 336 331 326 327
290 287 287 291 293 289 290 290 295 296 296 298 298 299 297 299 301 303 301 301 303 308 329 337 339 338 338 338 338 338 336 336 338 337 338 334 333 338 341 340 339 341 339 337 336 333 329 324 321
290 287 289 288 293 291 290 289 291 295 295 298 298 298 299 300 300 302 302 300 300 308 326 338 340 339 338 339 340 341 341 340 339 339 338 337 334 338 341 340 343 340 340 338 336 332 328 322 322
287 294 292 291 288 283 290 281 289 291 291 294 296 297 299 299 300 301 301 299 299 300 321 340 341 340 339 340 339 338 339 335 338 341 340 339 337 339 342 343 342 341 338 335 333 330 326 323 322
289 294 291 291 287 284 286 281 288 289 290 293 295 295 296 298 299 298 299 299 300 300 311 337 341 341 340 339 339 336 337 339 339 339 340 339 339 340 344 343 342 338 335 331 329 327 325 324 322
295 291 289 285 283 277 284 283 285 286 289 291 294 295 299 299 301 302 304 304 303 300 301 318 341 341 340 339 339 335 336 338 339 339 338 338 338 340 343 343 340 333 329 328 326 324 322 319 317
291 284 277 277 275 277 284 282 286 291 293 295 296 295 300 300 300 301 303 304 304 303 301 306 333 339 340 339 338 337 335 337 340 339 338 337 337 340 341 340 334 330 328 326 323 319 317 314 312
287 285 276 273 275 278 286 280 285 292 295 296 296 298 300 300 299 301 303 303 303 304 306 304 316 336 338 338 338 338 335 333 340 340 339 338 339 341 341 337 332 329 327 323 319 317 314 312 310
286 281 286 281 283 280 282 285 289 292 293 294 298 299 297 299 299 301 303 303 304 305 305 304 308 327 337 338 338 338 337 336 339 339 339 339 341 340 338 333 330 326 323 319 317 313 310 310 309
290 290 278 280 276 275 278 281 283 287 289 295 295 295 298 300 301 301 303 305 305 306 306 306 306 312 334 338 338 338 340 339 340 338 337 338 340 338 334 330 327 323 320 318 315 311 311 309 306
288 286 287 288 285 279 277 279 290 291 293 293 295 297 297 299 300 301 302 305 306 307 307 306 306 317 328 337 337 338 342 340 339 338 337 339 337 335 332 328 324 319 318 316 312 311 309 304 300
291 289 289 281 280 285 280 280 294 295 295 294 294 295 297 300 302 300 301 305 306 307 307 306 306 312 329 336 337 337 339 338 339 338 339 339 335 333 329 325 321 319 315 313 312 310 305 301 297
Wind_Speed
7 7 1 4 4 5 4 7 0 7 5 3 6 6 21 7 9 8 5 13 19 19 16 18 18 19 18 19 20 20 20 19 19 18 17 18 17 17 17 16 15 14 15 14 12 11 11 11 11
5 5 5 3 4 2 6 4 3 5 2 12 10 4 4 7 5 3 9 10 20 20 17 16 20 19 19 19 20 20 21 20 19 19 18 18 17 17 16 15 14 14 13 12 11 10 10 10 10
4 2 4 4 4 6 6 4 2 7 7 4 9 4 4 6 0 9 5 17 19 16 16 16 21 19 19 19 19 20 21 20 20 19 18 18 17 16 15 14 14 14 12 11 10 9 8 9 9
4 5 5 4 9 7 6 1 6 8 7 6 3 12 5 1 4 5 18 22 19 17 15 19 21 19 18 19 19 19 20 20 19 18 17 17 17 16 14 14 13 12 12 10 8 7 7 7 7
4 4 2 2 7 6 6 4 4 5 6 8 5 8 7 4 7 14 15 16 19 16 14 17 22 20 19 19 20 19 20 19 18 18 17 17 17 15 14 13 12 11 11 10 8 7 5 5 5
4 4 2 5 5 6 7 4 4 3 4 10 11 7 7 4 7 9 15 16 15 17 16 17 20 19 18 19 19 19 19 19 18 17 16 16 15 14 13 12 11 11 10 9 8 7 4 3 2
7 5 5 3 3 6 4 4 5 5 5 5 8 4 9 11 5 4 6 5 10 14 17 15 15 17 17 17 18 19 18 18 17 16 16 15 14 13 12 11 11 10 9 8 8 6 4 2 1
5 4 2 3 1 6 4 8 3 3 5 4 4 5 9 18 9 6 7 5 4 8 11 16 13 15 14 11 19 19 19 18 16 15 15 14 14 13 12 10 10 10 9 8 7 6 4 3 2
3 4 2 4 2 6 7 6 1 3 6 5 4 3 5 9 9 8 5 3 4 5 8 11 13 12 12 12 11 16 20 18 17 15 13 10 4 6 9 9 10 10 9 7 7 5 4 4 1
5 4 8 7 4 7 9 6 15 5 11 3 7 1 2 8 6 4 1 2 6 10 11 10 12 13 12 11 9 7 9 8 8 8 9 5 5 4 6 8 10 10 9 8 6 5 6 4 1
2 4 5 6 8 6 6 11 8 6 5 6 8 12 2 4 5 5 6 6 5 5 7 8 9 14 15 11 8 5 5 6 7 10 11 10 7 4 3 3 3 3 7 3 4 3 2 2 2
3 6 1 6 6 6 6 7 8 6 5 6 8 9 3 2 5 6 5 7 10 10 10 7 9 12 13 11 11 10 7 8 7 10 13 8 6 4 5 4 4 4 3 4 4 2 3 4 4
2 3 8 8 9 7 7 7 9 9 10 8 9 8 11 7 5 6 8 7 9 12 14 12 10 10 12 14 12 12 11 10 11 10 11 7 6 6 5 4 4 3 3 3 4 3 3 4 4
4 4 9 7 9 6 7 6 2 8 10 11 6 9 10 11 9 7 6 8 7 11 12 11 13 10 10 9 14 12 12 13 12 10 9 10 7 6 5 4 4 4 4 3 3 3 3 2 2
4 8 9 7 5 5 3 6 5 8 9 10 13 13 8 11 8 11 11 11 9 7 13 15 16 14 11 7 7 8 8 10 11 10 11 11 8 7 7 5 4 4 4 4 2 3 2 1 3
6 4 5 7 6 8 4 9 10 10 5 11 13 13 13 11 11 10 11 10 10 8 11 16 16 18 14 10 6 4 7 8 8 9 10 12 11 9 6 6 6 5 4 4 4 3 1 1 0
5 6 6 11 4 7 2 16 6 9 8 8 9 12 14 14 11 10 11 8 12 11 9 13 16 18 17 12 7 5 6 7 6 8 9 14 12 10 8 6 5 5 4 4 4 2 3 2 1
9 7 8 12 11 15 14 18 13 7 6 9 9 10 11 13 12 11 10 9 8 11 9 13 13 14 14 9 9 5 4 4 4 7 8 12 11 12 9 5 5 5 4 4 3 4 2 3 3
7 9 13 14 15 6 15 15 19 10 7 9 10 10 13 17 15 9 10 9 5 7 7 9 14 14 12 11 12 8 8 6 4 4 6 9 10 10 9 6 5 5 5 6 6 4 5 2 1
6 9 14 18 10 5 13 23 20 8 8 15 18 17 14 13 13 14 10 8 8 7 8 9 13 16 14 12 11 8 7 4 4 5 7 10 12 12 10 8 6 8 5 6 5 6 4 3 3
12 9 14 19 16 5 6 22 11 13 11 14 12 13 10 13 16 16 14 10 7 9 9 11 15 17 14 14 10 7 8 3 5 7 9 10 13 12 11 10 8 7 7 8 6 5 7 4 2
11 12 14 13 11 14 7 19 26 10 7 7 14 15 16 16 15 14 14 9 7 9 7 11 15 17 16 15 14 17 15 11 13 12 9 10 12 11 10 10 10 10 6 7 5 4 4 6 5
6 10 7 12 12 7 3 2 23 3 15 19 15 9 11 13 11 9 9 6 7 4 8 8 13 16 17 19 18 16 16 15 10 9 12 13 12 12 11 10 10 8 5 6 7 6 6 4 4
7 5 8 2 1 7 8 12 29 6 8 6 7 4 4 5 6 7 7 7 5 3 6 7 14 16 16 18 19 19 18 16 11 10 10 8 7 8 10 9 9 7 7 7 6 6 7 6 5
13 6 5 4 1 9 4 8 19 6 12 17 17 7 6 5 7 8 9 8 8 7 2 7 9 16 18 18 20 19 17 16 16 15 11 12 10 10 10 11 10 8 8 8 8 8 8 6 7
11 5 4 6 4 7 8 10 10 10 13 14 8 7 5 6 7 6 7 9 9 6 8 7 9 13 17 20 22 20 16 11 10 12 11 11 12 11 14 12 12 13 12 10 9 8 8 9 8
3 4 6 10 15 11 10 12 10 11 14 7 6 3 5 6 6 7 7 7 8 11 6 8 9 13 16 20 20 18 16 14 12 12 12 10 11 10 13 15 14 14 14 11 11 8 9 10 8
7 3 4 3 6 8 5 7 8 10 8 3 6 7 8 8 10 9 9 11 5 7 10 11 9 14 16 20 19 17 18 16 13 12 13 13 12 15 14 16 16 16 14 12 12 10 11 11 7
4 2 5 4 5 6 9 3 6 7 8 8 8 11 10 9 8 8 9 11 10 9 10 13 9 10 13 16 18 18 16 16 15 15 15 14 14 16 16 17 17 18 17 13 13 11 11 12 10
12 10 4 4 5 6 6 15 17 21 6 7 7 9 11 9 8 9 11 11 11 12 13 13 11 7 15 15 17 18 15 16 16 15 16 15 16 15 17 17 17 17 16 16 16 12 12 11 10
Wind_Direction
329 310 72 42 46 61 271 266 151 308 5 305 158 179 184 157 179 212 313 154 135 142 147 159 154 145 142 140 136 133 131 132 132 132 134 132 131 131 131 131 132 133 133 129 127 124 119 117 116
331 341 42 76 97 283 262 265 195 261 1 314 324 88 234 224 209 112 119 161 148 143 146 159 156 150 148 145 142 139 137 137 138 138 138 135 134 133 134 134 134 136 135 132 129 124 119 118 118
340 40 75 110 157 205 234 210 298 313 322 332 337 318 258 260 73 168 160 149 139 141 148 158 155 154 153 150 146 143 142 142 142 142 142 139 136 135 138 140 142 141 139 135 130 125 124 121 121
27 15 34 114 225 247 226 147 24 352 343 99 300 298 288 247 204 161 148 146 142 143 147 157 155 154 158 153 150 147 147 145 145 144 145 141 138 140 144 143 144 146 144 139 137 132 125 123 124
37 53 60 256 257 274 311 353 10 326 292 313 339 284 280 22 80 128 143 151 146 145 146 157 158 158 162 159 153 151 150 149 148 148 149 146 144 148 148 147 147 147 146 144 144 139 140 137 131
52 88 53 246 272 306 305 298 328 313 330 310 359 308 267 37 114 158 151 157 152 146 150 160 161 162 164 160 155 154 154 153 151 152 153 151 150 151 149 148 147 146 150 151 150 150 151 147 117
114 93 222 239 262 312 272 351 333 335 359 342 311 331 303 0 44 103 111 117 145 147 153 161 157 165 170 164 159 158 157 156 156 154 159 157 155 155 152 150 147 149 154 155 158 162 163 163 208
105 102 225 254 237 275 274 336 263 10 303 312 8 11 324 320 106 76 101 100 130 152 160 161 162 162 171 170 163 161 157 156 157 159 163 165 158 157 155 151 157 160 163 167 170 177 171 208 241
104 60 233 254 192 273 304 336 242 270 259 353 278 128 293 29 64 71 56 79 139 184 172 170 161 163 163 174 170 162 160 159 159 163 166 161 151 157 161 166 167 169 170 178 184 183 202 231 261
108 137 217 210 249 282 292 297 298 314 315 292 299 209 48 55 93 96 64 302 263 202 197 179 171 159 158 169 172 158 162 157 157 163 173 161 160 162 163 176 176 176 178 189 201 200 220 234 183
121 192 233 272 254 267 265 298 273 281 289 252 286 298 96 98 83 90 186 206 226 239 255 212 189 165 160 163 166 164 166 165 168 173 178 185 179 179 167 169 180 181 192 192 205 238 251 237 216
295 250 323 301 326 319 295 300 302 261 236 267 272 284 276 147 171 188 197 232 201 209 196 230 228 183 173 159 165 164 168 177 174 184 184 182 182 180 182 183 185 184 193 194 204 208 248 265 265
214 324 327 285 285 265 273 257 257 286 279 259 263 269 290 282 204 213 224 216 213 202 189 197 209 219 191 173 167 171 169 176 177 183 185 175 178 188 185 194 191 187 186 197 213 213 218 255 295
288 278 280 274 267 248 254 259 278 286 286 305 260 248 267 278 266 156 193 243 232 205 196 180 191 211 220 209 180 175 171 171 176 178 182 177 174 185 193 193 199 199 195 197 209 205 228 252 303
278 325 321 291 284 282 290 312 267 259 303 299 304 307 268 267 264 262 171 208 217 208 199 186 188 192 203 218 211 180 176 179 174 173 175 178 173 189 191 194 195 201 200 198 203 230 242 279 286
351 16 347 279 324 276 113 280 280 288 331 310 309 312 311 292 278 246 257 188 225 212 188 201 195 191 180 183 198 197 191 188 184 177 171 178 180 190 193 191 206 186 180 173 188 206 262 2 116
354 270 278 304 256 270 213 291 261 296 303 292 300 306 303 302 295 266 246 205 206 221 226 195 189 186 179 163 160 182 207 200 184 181 186 183 184 193 194 197 211 170 176 187 191 172 140 149 147
277 273 267 276 292 296 283 273 274 261 263 269 282 283 292 298 286 287 293 249 196 223 231 185 180 174 169 149 148 157 174 222 208 202 194 187 190 191 197 192 201 171 166 199 169 132 91 123 167
251 270 263 275 280 269 274 273 283 264 280 280 259 268 275 277 280 272 277 269 194 217 198 174 164 165 155 159 165 166 192 197 228 217 204 191 197 196 195 207 176 172 175 185 160 116 142 105 89
253 267 281 280 252 239 292 285 276 277 256 255 268 271 252 266 282 286 272 255 226 186 205 169 177 170 172 171 173 164 171 220 199 208 195 198 198 198 191 195 182 175 165 151 150 156 130 90 20
287 269 287 275 296 264 309 282 282 273 250 262 248 246 255 253 268 275 272 255 191 196 192 180 181 181 180 178 163 129 143 137 212 207 197 204 200 199 195 182 168 167 172 169 166 160 130 131 32
279 271 282 285 293 286 153 288 293 259 277 266 266 263 254 258 255 255 270 280 242 220 201 186 184 184 180 179 173 175 166 184 206 208 186 191 191 198 190 176 163 174 166 151 152 143 130 125 139
267 310 296 281 263 284 142 239 277 11 290 279 279 248 255 254 245 255 264 259 278 184 199 194 193 191 190 181 185 184 187 189 194 203 204 204 170 182 185 171 158 160 138 131 137 131 130 113 136
288 323 298 309 127 251 204 196 277 216 220 265 269 271 281 295 315 297 292 314 317 77 225 220 182 195 195 197 192 191 194 198 192 185 182 190 168 164 180 155 150 131 125 131 122 109 111 111 99
346 9 316 304 251 248 214 213 254 263 260 258 272 261 214 285 307 322 329 322 327 328 236 235 215 197 192 197 200 202 203 201 194 183 178 172 170 174 166 145 140 129 121 115 115 107 100 98 97
279 183 199 272 267 279 330 256 255 231 254 250 237 207 209 275 271 281 295 308 314 307 303 202 233 216 199 196 205 202 200 207 198 191 177 185 178 171 161 149 137 130 121 116 110 100 97 98 94
311 278 227 273 270 264 228 263 296 262 270 263 185 186 280 296 320 307 311 295 302 310 302 291 217 230 208 203 203 208 197 198 194 186 180 180 164 156 152 138 135 125 117 116 113 107 104 94 96
186 247 338 318 278 269 244 267 253 279 267 271 16 342 328 327 327 322 316 309 276 276 294 290 255 233 211 202 202 206 199 188 176 169 181 175 165 150 149 137 136 121 116 115 113 109 105 101 91
258 245 239 218 237 288 298 250 326 13 34 19 348 339 325 304 293 300 302 302 306 291 282 277 268 224 219 204 201 200 196 184 172 177 174 172 161 152 148 143 136 127 123 117 104 102 108 99 98
245 250 239 245 251 250 279 277 238 267 36 8 332 314 304 308 307 311 311 309 306 295 285 272 265 219 227 203 194 192 178 182 175 176 164 156 149 148 141 140 137 126 120 119 118 118 103 107 106